Location: Brno
(49.2000°N, 16.6330°E)
Time: 04:57:20
(UTC+02:00)

Cosmos 332 Rocket - Visible Passes

Search period start: 19 June 2018 00:00
Search period end: 29 June 2018 00:00
Orbit: 681 x 705 km, 74.0° (Epoch: 18 June)

Date Brightness Start Highest point End Pass type
(mag) Time Alt. Az. Time Alt. Az. Time Alt. Az.
19 Jun 4.4 01:39:44 10° NW 01:44:24 43° WSW 01:46:24 28° SSW visible
19 Jun 6.2 23:00:57 10° N 23:03:45 15° NE 23:06:33 10° E visible
20 Jun 3.9 00:40:10 10° NNW 00:45:07 76° ENE 00:47:47 27° SSE visible
20 Jun 5.6 02:22:00 10° WNW 02:24:56 16° W 02:26:27 14° WSW visible
20 Jun 5.2 23:41:03 10° N 23:45:29 32° NE 23:49:11 14° ESE visible
21 Jun 4.5 01:21:27 10° NW 01:26:01 39° WSW 01:27:51 28° SSW visible
21 Jun 6.1 22:42:29 10° N 22:45:29 16° NE 22:48:29 10° E visible
22 Jun 3.8 00:21:49 10° NNW 00:26:47 82° ENE 00:29:18 29° SSE visible
22 Jun 5.8 02:03:55 10° WNW 02:06:31 14° W 02:07:59 13° WSW visible
22 Jun 5.0 23:22:39 10° N 23:27:11 35° ENE 23:30:47 15° ESE visible
23 Jun 4.7 01:03:09 10° NW 01:07:38 36° WSW 01:09:27 27° SW visible
23 Jun 6.0 22:24:01 10° N 22:27:13 17° NE 22:30:24 10° E visible
24 Jun 3.8 00:03:28 10° NNW 00:08:25 89° ENE 00:10:57 29° SSE visible
24 Jun 5.9 01:45:52 10° WNW 01:48:06 13° W 01:49:38 12° WSW visible
24 Jun 4.8 23:04:17 10° N 23:08:52 37° ENE 23:12:29 15° ESE visible
25 Jun 4.9 00:44:52 10° NW 00:49:16 33° WSW 00:51:10 25° SW visible
25 Jun 5.9 22:05:33 10° N 22:08:56 18° NE 22:12:18 10° E visible
25 Jun 3.8 23:45:08 10° NNW 23:50:04 84° WSW 23:52:43 28° SSE visible
26 Jun 6.0 01:27:55 10° WNW 01:29:41 12° W 01:31:24 10° WSW visible
26 Jun 4.7 22:45:53 10° NNW 22:50:33 40° ENE 22:54:18 15° SE visible
27 Jun 5.0 00:26:36 10° NW 00:30:52 30° WSW 00:32:59 22° SW visible
27 Jun 5.7 21:47:07 10° N 21:50:39 19° NE 21:54:11 10° E visible
27 Jun 3.8 23:26:47 10° NNW 23:31:44 77° WSW 23:34:35 25° SSE visible
28 Jun 6.2 01:10:11 10° W 01:11:15 11° W 01:12:19 10° WSW visible
28 Jun 4.5 22:27:30 10° NNW 22:32:14 44° ENE 22:36:13 14° SE visible
